Карточка аэропорта UOOO

Внимание!
Информация на этой странице в стадии наполнения.
Если вы не увидели какой-то информации, или заметили неточность - пожалуйста сообщите нам!
Спасибо!
Команда RU-STAFF
Название аэропортаАлыкель
Название аэропорта (англ.)Alykel
Превышение574 ft. (175 m.)
Координаты69°19.02', 87°19.02'
Высота перехода1200m
Эшелон переходаQFE>744:FL60;744>QFE>717:FL70;717>QFE:FL80
Коды ответчика5401-5427
Зона ОрВДКрасноярск РПИ (UNKL)
Данные METARUOOO 251900Z 02013MPS 9999 SCT005 07/07 Q0994 R01/CLRD60 NOSIG RMK QFE731/0975
Проноз погоды (TAF)UOOO 251655Z 2518/2618 02013G19MPS 9999 FEW006 SCT016 FM261200 03009G14MPS 9999 BKN020CB TEMPO 2612/2615 -TSRA
NOTAMshow/hide NOTAM
AWOS   TABLE

Информация о ВПП

ВПП Длина ВПП (м.) Покрытие Курс ВПП Частота ILS
013430Бетон13109.5
193430Бетон193110.3

Диспетчерские позиции

Позывной Наименование органа УВД Частота
UOOO_TWRНорильск - Старт118.300
UOOO_GNDНорильск - Руление121.700
UOOO_APPНорильск - Круг120.400



Спутниковое изображение